RYR7MD LEPA-LEBL

Flight info

Callsign RYR7MD
Flight time 0h 34m
Altitude 18000
Route ESPOR L2 NEPAL
Aircraft B38M/M-SDE1FGHILORVWXY/HB1

Departure

Time 2026-05-08 07:38
Airport Palma de Mallorca Airport (LEPA)

Arrival

Time 2026-05-08 08:12
Airport Josep Tarradellas Barcelona-El Prat Airport (LEBL)
Time Latitude Longitude Altitude Speed Heading
2026-05-08 07:05 39.54836 2.73436 38 ft 0 kts 330°
2026-05-08 07:28 39.54817 2.73448 38 ft 4 kts 338°
2026-05-08 07:28 39.54813 2.73450 38 ft 4 kts 340°
2026-05-08 07:29 39.54805 2.73454 38 ft 4 kts 343°
2026-05-08 07:29 39.54779 2.73461 36 ft 4 kts 353°
2026-05-08 07:29 39.54752 2.73464 38 ft 4 kts 355°
2026-05-08 07:29 39.54734 2.73467 37 ft 4 kts 343°
2026-05-08 07:30 39.54731 2.73468 37 ft 4 kts 339°
2026-05-08 07:30 39.54724 2.73472 34 ft 1 kts 329°
2026-05-08 07:33 39.54745 2.73462 38 ft 6 kts 353°
2026-05-08 07:34 39.54772 2.73502 38 ft 6 kts 85°
2026-05-08 07:34 39.54750 2.73548 38 ft 7 kts 147°
2026-05-08 07:34 39.54704 2.73584 38 ft 9 kts 149°
2026-05-08 07:34 39.54663 2.73616 38 ft 6 kts 156°
2026-05-08 07:35 39.54617 2.73627 38 ft 8 kts 166°
2026-05-08 07:35 39.54559 2.73637 38 ft 9 kts 197°
2026-05-08 07:35 39.54530 2.73587 38 ft 8 kts 241°
2026-05-08 07:35 39.54501 2.73519 38 ft 10 kts 241°
2026-05-08 07:36 39.54463 2.73435 38 ft 12 kts 239°
2026-05-08 07:36 39.54420 2.73343 38 ft 11 kts 239°
2026-05-08 07:36 39.54391 2.73281 38 ft 9 kts 239°
2026-05-08 07:36 39.54355 2.73206 38 ft 11 kts 237°
2026-05-08 07:37 39.54299 2.73138 38 ft 11 kts 184°
2026-05-08 07:37 39.54253 2.73196 36 ft 10 kts 112°
2026-05-08 07:37 39.54241 2.73294 38 ft 12 kts 96°
2026-05-08 07:37 39.54238 2.73406 38 ft 12 kts 77°
2026-05-08 07:38 39.54281 2.73505 37 ft 18 kts 58°
2026-05-08 07:38 39.54475 2.73908 36 ft 92 kts 59°
2026-05-08 07:38 39.54936 2.74889 51 ft 157 kts 59°
2026-05-08 07:38 39.55506 2.76115 658 ft 166 kts 58°
2026-05-08 07:39 39.56145 2.77481 1208 ft 187 kts 59°
2026-05-08 07:39 39.56818 2.78910 2261 ft 188 kts 61°
2026-05-08 07:39 39.57536 2.80423 3067 ft 203 kts 61°
2026-05-08 07:39 39.58288 2.82022 4038 ft 210 kts 61°
2026-05-08 07:40 39.59049 2.83647 5101 ft 213 kts 61°
2026-05-08 07:40 39.59832 2.85316 6065 ft 220 kts 61°
2026-05-08 07:40 39.60640 2.87039 7001 ft 226 kts 61°
2026-05-08 07:40 39.61550 2.88750 7815 ft 239 kts 45°
2026-05-08 07:41 39.63078 2.89747 8434 ft 260 kts
2026-05-08 07:41 39.64899 2.89422 9091 ft 278 kts 334°
2026-05-08 07:41 39.66468 2.87864 9734 ft 293 kts 309°
2026-05-08 07:41 39.67894 2.85898 10473 ft 304 kts 315°
2026-05-08 07:42 39.69474 2.83975 11092 ft 319 kts 315°
2026-05-08 07:42 39.71145 2.81946 11493 ft 337 kts 315°
2026-05-08 07:42 39.72873 2.79838 11873 ft 345 kts 315°
2026-05-08 07:42 39.74623 2.77685 12265 ft 348 kts 315°
2026-05-08 07:43 39.76377 2.75506 12672 ft 350 kts 314°
2026-05-08 07:43 39.78134 2.73307 13076 ft 351 kts 314°
2026-05-08 07:43 39.79898 2.71094 13494 ft 353 kts 314°
2026-05-08 07:43 39.81665 2.68872 13885 ft 355 kts 314°
2026-05-08 07:44 39.83443 2.66635 14253 ft 356 kts 314°
2026-05-08 07:44 39.85227 2.64387 14625 ft 358 kts 314°
2026-05-08 07:44 39.87017 2.62130 14997 ft 359 kts 313°
2026-05-08 07:44 39.88814 2.59863 15376 ft 360 kts 313°
2026-05-08 07:45 39.90617 2.57587 15754 ft 362 kts 313°
2026-05-08 07:45 39.92426 2.55302 16137 ft 363 kts 313°
2026-05-08 07:46 39.92770 2.54866 16216 ft 363 kts 313°
2026-05-08 07:46 39.94498 2.52680 16588 ft 365 kts 313°
2026-05-08 07:46 39.96320 2.50373 16983 ft 366 kts 312°
2026-05-08 07:47 39.98148 2.48056 17382 ft 367 kts 312°
2026-05-08 07:47 39.99983 2.45729 17789 ft 369 kts 312°
2026-05-08 07:47 40.01802 2.43421 17990 ft 370 kts 312°
2026-05-08 07:47 40.03641 2.41084 17986 ft 369 kts 312°
2026-05-08 07:48 40.05481 2.38745 17992 ft 369 kts 312°
2026-05-08 07:48 40.07319 2.36405 17998 ft 369 kts 312°
2026-05-08 07:48 40.09158 2.34061 17998 ft 370 kts 312°
2026-05-08 07:48 40.10998 2.31714 17997 ft 370 kts 312°
2026-05-08 07:49 40.12837 2.29367 17994 ft 370 kts 312°
2026-05-08 07:49 40.14676 2.27019 18003 ft 370 kts 312°
2026-05-08 07:49 40.16518 2.24664 18001 ft 370 kts 312°
2026-05-08 07:49 40.18359 2.22309 18001 ft 370 kts 312°
2026-05-08 07:50 40.20200 2.19952 18001 ft 370 kts 312°
2026-05-08 07:50 40.22040 2.17595 18002 ft 370 kts 312°
2026-05-08 07:50 40.23883 2.15232 18007 ft 371 kts 312°
2026-05-08 07:50 40.25723 2.12870 18006 ft 371 kts 312°
2026-05-08 07:51 40.27619 2.10582 17988 ft 374 kts 320°
2026-05-08 07:51 40.29956 2.09021 18004 ft 381 kts 337°
2026-05-08 07:51 40.32473 2.07911 18003 ft 382 kts 338°
2026-05-08 07:51 40.35003 2.06818 18003 ft 383 kts 338°
2026-05-08 07:52 40.37536 2.05742 18009 ft 385 kts 338°
2026-05-08 07:52 40.40142 2.04648 18008 ft 401 kts 339°
2026-05-08 07:52 40.42844 2.03522 17998 ft 411 kts 339°
2026-05-08 07:52 40.45583 2.02383 18002 ft 415 kts 339°
2026-05-08 07:53 40.48343 2.01233 18005 ft 417 kts 339°
2026-05-08 07:53 40.51104 2.00082 18021 ft 410 kts 339°
2026-05-08 07:53 40.53756 1.98977 18089 ft 390 kts 339°
2026-05-08 07:53 40.56291 1.97918 17976 ft 376 kts 339°
2026-05-08 07:54 40.57921 1.97237 17894 ft 369 kts 339°
2026-05-08 07:54 40.58268 1.97092 17858 ft 370 kts 339°
2026-05-08 07:54 40.60742 1.96058 17468 ft 373 kts 339°
2026-05-08 07:54 40.63194 1.95032 17332 ft 366 kts 339°
2026-05-08 07:55 40.65604 1.94023 17145 ft 362 kts 339°
2026-05-08 07:55 40.68093 1.93359 16398 ft 373 kts 357°
2026-05-08 07:55 40.70616 1.93838 16020 ft 371 kts 16°
2026-05-08 07:55 40.72963 1.95236 15517 ft 371 kts 26°
2026-05-08 07:56 40.75263 1.96820 14667 ft 379 kts 27°
2026-05-08 07:56 40.77620 1.98470 13791 ft 388 kts 27°
2026-05-08 07:56 40.80017 2.00170 12901 ft 393 kts 28°
2026-05-08 07:56 40.82410 2.01880 12300 ft 390 kts 28°
2026-05-08 07:57 40.84781 2.03579 11733 ft 386 kts 28°
2026-05-08 07:57 40.87130 2.05264 11195 ft 382 kts 29°
2026-05-08 07:57 40.89454 2.06933 10642 ft 378 kts 29°
2026-05-08 07:57 40.91752 2.08588 10151 ft 373 kts 30°
2026-05-08 07:58 40.93980 2.10258 9920 ft 361 kts 30°
2026-05-08 07:58 40.96113 2.11862 9825 ft 345 kts 30°
2026-05-08 07:58 40.98155 2.13396 9694 ft 331 kts 30°
2026-05-08 07:58 41.00114 2.14869 9574 ft 317 kts 30°
2026-05-08 07:59 41.01993 2.16281 9446 ft 305 kts 31°
2026-05-08 07:59 41.03801 2.17641 9322 ft 292 kts 30°
2026-05-08 07:59 41.05532 2.18944 9213 ft 280 kts 31°
2026-05-08 07:59 41.07208 2.20206 9102 ft 277 kts 31°
2026-05-08 08:00 41.08888 2.21472 8967 ft 278 kts 31°
2026-05-08 08:00 41.09454 2.21900 8926 ft 278 kts 31°
2026-05-08 08:00 41.10788 2.22906 8836 ft 277 kts 31°
2026-05-08 08:00 41.12464 2.24170 8727 ft 276 kts 31°
2026-05-08 08:01 41.14134 2.25431 8605 ft 276 kts 31°
2026-05-08 08:01 41.15798 2.26687 8508 ft 275 kts 31°
2026-05-08 08:01 41.17415 2.28027 8392 ft 273 kts 43°
2026-05-08 08:01 41.18587 2.29974 8164 ft 271 kts 58°
2026-05-08 08:02 41.19650 2.32108 7534 ft 281 kts 57°
2026-05-08 08:02 41.20720 2.34262 6978 ft 278 kts 58°
2026-05-08 08:02 41.21773 2.36396 6452 ft 275 kts 58°
2026-05-08 08:02 41.22824 2.38490 5948 ft 269 kts 57°
2026-05-08 08:03 41.23867 2.40532 5447 ft 265 kts 57°
2026-05-08 08:03 41.24886 2.42534 4958 ft 260 kts 57°
2026-05-08 08:03 41.25893 2.44519 4455 ft 256 kts 57°
2026-05-08 08:03 41.26891 2.46457 3959 ft 253 kts 52°
2026-05-08 08:04 41.28213 2.47978 3455 ft 252 kts 30°
2026-05-08 08:04 41.29866 2.48697 2950 ft 251 kts
2026-05-08 08:04 41.31595 2.48510 2446 ft 250 kts 343°
2026-05-08 08:04 41.33151 2.47571 2343 ft 247 kts 333°
2026-05-08 08:05 41.34632 2.46493 2326 ft 235 kts 332°
2026-05-08 08:05 41.36050 2.45449 2326 ft 232 kts 332°
2026-05-08 08:05 41.37464 2.44412 2317 ft 232 kts 332°
2026-05-08 08:05 41.38880 2.43372 2320 ft 232 kts 332°
2026-05-08 08:06 41.40293 2.42334 2305 ft 232 kts 332°
2026-05-08 08:06 41.41706 2.41302 2314 ft 232 kts 332°
2026-05-08 08:06 41.42969 2.40054 2270 ft 223 kts 304°
2026-05-08 08:07 41.43361 2.38792 2264 ft 219 kts 275°
2026-05-08 08:07 41.43057 2.36881 2297 ft 218 kts 239°
2026-05-08 08:07 41.42140 2.35258 2329 ft 220 kts 225°
2026-05-08 08:07 41.40935 2.34018 2309 ft 219 kts 205°
2026-05-08 08:08 41.39541 2.33228 2320 ft 219 kts 201°
2026-05-08 08:08 41.38293 2.32197 2306 ft 205 kts 224°
2026-05-08 08:08 41.37491 2.30705 2305 ft 195 kts 242°
2026-05-08 08:08 41.36942 2.29082 2327 ft 196 kts 246°
2026-05-08 08:09 41.36423 2.27498 2359 ft 191 kts 245°
2026-05-08 08:09 41.35885 2.25909 2333 ft 186 kts 244°
2026-05-08 08:09 41.35351 2.24344 2223 ft 185 kts 244°
2026-05-08 08:09 41.34819 2.22787 2009 ft 184 kts 244°
2026-05-08 08:10 41.34296 2.21254 1809 ft 177 kts 244°
2026-05-08 08:10 41.33815 2.19845 1580 ft 159 kts 244°
2026-05-08 08:10 41.33382 2.18581 1379 ft 157 kts 244°
2026-05-08 08:10 41.32931 2.17261 1163 ft 156 kts 245°
2026-05-08 08:11 41.32485 2.15952 958 ft 154 kts 246°
2026-05-08 08:11 41.32042 2.14662 761 ft 153 kts 246°
2026-05-08 08:11 41.31592 2.13385 561 ft 151 kts 246°
2026-05-08 08:11 41.31160 2.12111 329 ft 151 kts 248°
2026-05-08 08:12 41.30735 2.10839 132 ft 151 kts 246°
2026-05-08 08:12 41.30297 2.09577 22 ft 144 kts 246°
2026-05-08 08:12 41.29950 2.08547 26 ft 103 kts 246°
2026-05-08 08:12 41.29753 2.07929 19 ft 32 kts 262°
2026-05-08 08:13 41.29758 2.07680 16 ft 24 kts 283°
2026-05-08 08:13 41.29784 2.07625 16 ft 1 kts 319°
2026-05-08 08:13 41.29785 2.07624 16 ft 0 kts 320°
2026-05-08 08:14 41.29791 2.07619 16 ft 0 kts 324°
2026-05-08 08:14 41.29802 2.07610 16 ft 3 kts 332°
2026-05-08 08:14 41.29820 2.07599 17 ft 3 kts 336°
2026-05-08 08:14 41.29839 2.07588 18 ft 3 kts 336°
2026-05-08 08:15 41.29851 2.07575 18 ft 1 kts 296°
2026-05-08 08:15 41.29849 2.07560 18 ft 3 kts 254°
2026-05-08 08:15 41.29820 2.07506 17 ft 13 kts 215°
2026-05-08 08:15 41.29788 2.07416 17 ft 10 kts 265°
2026-05-08 08:16 41.29771 2.07319 18 ft 12 kts 248°
2026-05-08 08:16 41.29758 2.07247 18 ft 4 kts 288°
2026-05-08 08:16 41.29780 2.07204 18 ft 8 kts 311°
2026-05-08 08:16 41.29826 2.07174 19 ft 7 kts 337°
2026-05-08 08:17 41.29874 2.07146 20 ft 8 kts 336°
2026-05-08 08:17 41.29922 2.07108 22 ft 8 kts 310°
2026-05-08 08:17 41.29927 2.07047 24 ft 7 kts 250°
2026-05-08 08:17 41.29897 2.07012 23 ft 5 kts 172°
2026-05-08 08:18 41.29872 2.07027 21 ft 8 kts 155°
2026-05-08 08:18 41.29845 2.07044 21 ft 0 kts 156°